KC1NKL-13 Weather Reports


time (UTC)temp
C
wind
direction
speed
KPH
gust
KPH
rain 1hr
cm
rain 24hr
cm
rain mn
cm
humidity
%
barometer
mb
20260505214516 15 158 9.7 19.3 0.00 0.00 0.00 69 1004.8
20260505213535 16 180 9.7 25.7 0.00 0.00 0.00 68 1004.7
20260505212516 16 158 9.7 19.3 0.00 0.00 0.00 67 1004.8
20260505211515 16 158 8.0 22.5 0.00 0.00 0.00 67 1004.9
20260505210518 17 158 8.0 19.3 0.00 0.00 0.00 65 1004.9
20260505205518 17 203 8.0 17.7 0.00 0.00 0.00 65 1004.8
20260505204518 17 158 8.0 19.3 0.00 0.00 0.00 65 1004.7
20260505203518 18 180 6.4 17.7 0.00 0.00 0.00 64 1004.7
20260505202517 18 180 8.0 16.1 0.00 0.00 0.00 63 1004.7
20260505201517 18 203 8.0 20.9 0.00 0.00 0.00 63 1004.8
20260505200518 18 158 8.0 14.5 0.00 0.00 0.00 63 1004.9
20260505195517 18 135 9.7 20.9 0.00 0.00 0.00 63 1004.8
20260505194537 18 158 8.0 19.3 0.00 0.00 0.00 62 1005.2
20260505193517 19 158 9.7 19.3 0.00 0.00 0.00 62 1005.4
20260505192537 20 158 6.4 17.7 0.00 0.00 0.00 62 1005.6
20260505191517 18 180 9.7 17.7 0.00 0.00 0.00 63 1005.7
20260505190539 18 180 8.0 20.9 0.00 0.00 0.00 63 1005.7
20260505185518 18 180 6.4 17.7 0.00 0.00 0.00 63 1005.9
20260505184537 19 158 9.7 17.7 0.00 0.00 0.00 62 1006.1
20260505183517 19 158 9.7 20.9 0.00 0.00 0.00 60 1006.1
20260505182517 20 158 6.4 17.7 0.00 0.00 0.00 59 1006.0
20260505181517 20 158 8.0 16.1 0.00 0.00 0.00 59 1005.9
20260505180517 21 180 8.0 17.7 0.00 0.00 0.00 57 1005.9
20260505175517 20 158 6.4 9.7 0.00 0.00 0.00 58 1005.9
20260505174517 20 203 6.4 16.1 0.00 0.00 0.00 59 1006.4
20260505173517 20 203 8.0 16.1 0.00 0.00 0.00 58 1006.7
20260505172517 20 180 6.4 11.3 0.00 0.00 0.00 58 1006.8
20260505171518 20 158 6.4 16.1 0.00 0.00 0.00 57 1006.7
20260505170517 21 203 6.4 12.9 0.00 0.00 0.00 56 1007.1
20260505165517 20 180 6.4 11.3 0.00 0.00 0.00 59 1007.0
20260505164517 20 180 3.2 8.0 0.00 0.00 0.00 59 1007.2
20260505163537 19 180 4.8 11.3 0.00 0.00 0.00 63 1007.3
20260505162517 18 180 6.4 12.9 0.00 0.00 0.00 63 1007.6
20260505161517 18 158 6.4 11.3 0.00 0.00 0.00 64 1007.7
20260505160516 17 158 4.8 8.0 0.00 0.00 0.00 67 1007.8
20260505152516 16 180 4.8 8.0 0.00 0.00 0.00 71 1008.3
20260505151536 16 180 6.4 12.9 0.00 0.00 0.00 69 1008.2
20260505150516 16 158 4.8 11.3 0.00 0.00 0.00 67 1008.0
20260505140636 16 180 9.7 16.1 0.00 0.00 0.00 66 1008.4
20260505124516 15 203 3.2 9.7 0.00 0.00 0.00 69 1008.3
20260505123516 14 158 6.4 14.5 0.00 0.00 0.00 70 1008.3
20260505122516 13 203 4.8 8.0 0.00 0.00 0.00 70 1008.4
20260505121536 13 180 6.4 16.1 0.00 0.00 0.00 72 1008.7
20260505120516 13 158 4.8 9.7 0.00 0.00 0.00 72 1008.6
20260505115516 12 225 3.2 8.0 0.00 0.00 0.00 75 1008.7
20260505114516 12 158 4.8 8.0 0.00 0.00 0.00 76 1008.7
20260505113518 11 135 3.2 4.8 0.00 0.00 0.00 78 1008.8
20260505112557 11 158 3.2 8.0 0.00 0.00 0.00 79 1008.8
20260505111516 10 158 3.2 4.8 0.00 0.00 0.00 80 1008.9
20260505110516 10 135 3.2 6.4 0.00 0.00 0.00 81 1008.7
20260505101516 10 135 3.2 8.0 0.00 0.00 0.00 81 1008.6
20260505100516 10 158 3.2 6.4 0.00 0.00 0.00 81 1008.5
20260505095516 9 135 3.2 6.4 0.00 0.00 0.00 81 1008.5
20260505094516 9 135 3.2 4.8 0.00 0.00 0.00 81 1008.6
20260505093515 9 90 3.2 4.8 0.00 0.00 0.00 80 1008.5
20260505092517 9 113 1.6 4.8 0.00 0.00 0.00 80 1008.5
20260505091516 9 158 1.6 4.8 0.00 0.00 0.00 80 1008.5
20260505090515 10 135 3.2 6.4 0.00 0.00 0.00 79 1008.6
20260505085515 10 180 1.6 4.8 0.00 0.00 0.00 79 1008.7
20260505084515 10 180 1.6 3.2 0.00 0.00 0.00 79 1008.6
20260505083516 10 180 1.6 4.8 0.00 0.00 0.00 79 1008.7
20260505082517 10 180 3.2 6.4 0.00 0.00 0.00 79 1008.7
20260505081517 10 158 3.2 6.4 0.00 0.00 0.00 79 1008.7
20260505080517 10 158 3.2 4.8 0.00 0.00 0.00 78 1008.7
20260505075517 10 135 3.2 4.8 0.00 0.00 0.00 77 1008.6
20260505074517 10 158 3.2 6.4 0.00 0.00 0.00 77 1008.7
20260505073517 10 158 3.2 4.8 0.00 0.00 0.00 76 1008.6
20260505072517 10 158 3.2 8.0 0.00 0.00 0.00 76 1008.7
20260505071518 10 158 1.6 4.8 0.00 0.00 0.00 77 1008.6
20260505070517 10 135 1.6 3.2 0.00 0.00 0.00 76 1008.7
20260505065517 10 158 1.6 4.8 0.00 0.00 0.00 76 1008.6
20260505064537 11 158 1.6 6.4 0.00 0.00 0.00 75 1008.4
20260505063517 11 180 1.6 6.4 0.00 0.00 0.00 74 1008.4
20260505062517 11 180 3.2 4.8 0.00 0.00 0.00 73 1008.5
20260505061517 11 180 3.2 6.4 0.00 0.00 0.00 73 1008.5
20260505060517 11 180 1.6 4.8 0.00 0.00 0.00 72 1008.5
20260505055517 11 158 1.6 4.8 0.00 0.00 0.00 72 1008.4
20260505054517 11 158 3.2 4.8 0.00 0.00 0.00 72 1008.4
20260505053537 12 158 3.2 6.4 0.00 0.00 0.00 70 1008.3
20260505052517 12 180 3.2 6.4 0.00 0.00 0.00 68 1008.3
20260505051517 12 180 3.2 6.4 0.00 0.00 0.00 67 1008.2
20260505050517 13 203 3.2 6.4 0.00 0.00 0.00 67 1008.3
20260505041516 13 180 3.2 6.4 0.00 0.00 0.00 67 1008.0
20260505040537 12 180 3.2 9.7 0.00 0.00 0.00 68 1007.8
20260505035516 12 180 3.2 6.4 0.00 0.00 0.00 70 1007.7
20260505034516 11 203 3.2 11.3 0.00 0.00 0.00 74 1007.7
20260505033557 11 180 3.2 8.0 0.00 0.00 0.00 75 1007.7
20260505032517 10 180 3.2 6.4 0.00 0.00 0.00 78 1007.6
20260505031538 10 158 3.2 6.4 0.00 0.00 0.00 79 1007.7
20260505030516 9 180 3.2 6.4 0.00 0.00 0.00 80 1007.6
20260505025516 9 158 3.2 6.4 0.00 0.00 0.00 80 1007.7
20260505024516 9 158 1.6 4.8 0.00 0.00 0.00 80 1007.8
20260505023516 9 158 1.6 6.4 0.00 0.00 0.00 80 1007.7
20260505022516 8 113 1.6 3.2 0.00 0.00 0.00 81 1007.6
20260505021516 8 113 1.6 3.2 0.00 0.00 0.00 81 1007.6
20260505020516 8 113 1.6 3.2 0.00 0.00 0.00 80 1007.6
20260505015517 8 113 1.6 3.2 0.00 0.00 0.00 80 1007.6
20260505014516 8 113 1.6 4.8 0.00 0.00 0.00 80 1007.5
20260505013516 9 113 3.2 4.8 0.00 0.00 0.00 79 1007.3
20260505012516 9 113 1.6 3.2 0.00 0.00 0.00 78 1007.2
20260505011516 10 113 1.6 3.2 0.00 0.00 0.00 77 1007.3
20260505010516 10 113 1.6 3.2 0.00 0.00 0.00 75 1007.1
20260505005516 10 113 1.6 3.2 0.00 0.00 0.00 72 1007.0
20260505004536 11 135 3.2 6.4 0.00 0.00 0.00 71 1007.0
20260505003516 11 113 3.2 4.8 0.00 0.00 0.00 69 1006.7
20260505002516 12 113 4.8 8.0 0.00 0.00 0.00 67 1006.4
20260505001516 12 113 4.8 6.4 0.00 0.00 0.00 65 1006.2
20260505000517 13 113 4.8 6.4 0.00 0.00 0.00 64 1006.2
20260504235516 13 113 4.8 6.4 0.00 0.00 0.00 63 1006.2
20260504234516 13 113 3.2 6.4 0.00 0.00 0.00 63 1006.2
20260504233516 14 113 3.2 6.4 0.00 0.00 0.00 63 1006.0
20260504232516 15 135 3.2 6.4 0.00 0.00 0.00 62 1005.9
20260504231516 15 135 4.8 9.7 0.00 0.00 0.00 61 1005.7
20260504230535 16 113 3.2 6.4 0.00 0.00 0.00 60 1005.6
20260504225515 16 135 3.2 6.4 0.00 0.00 0.00 57 1005.4
20260504224556 17 158 3.2 4.8 0.00 0.00 0.00 55 1005.3
20260504223515 17 135 4.8 8.0 0.00 0.00 0.00 53 1005.2
20260504222515 17 135 1.6 3.2 0.00 0.00 0.00 53 1005.3
20260504221536 17 135 1.6 3.2 0.00 0.00 0.00 53 1005.2
20260504220536 17 135 1.6 4.8 0.00 0.00 0.00 54 1005.2
20260504215515 17 270 1.6 4.8 0.00 0.00 0.00 50 1005.3